Mullan Pass, ID

12:07 AM PDT on July 24, 2017 (GMT -0700)
Mullan Pass

Weather History for KMLP - September, 2013

Change the Weather History Date:

Thursday, September 12, 2013

  Actual Average (K3TH) Record (K3TH)
Temperature  
Mean Temperature 66 °F -  
Max Temperature 75 °F 74 °F 91 °F (1996)
Min Temperature 57 °F 48 °F 44 °F (2000)
Cooling Degree Days 1    
Growing Degree Days 16 (Base 50)    
Moisture  
Dew Point 41 °F    
Average Humidity 40    
Maximum Humidity 53    
Minimum Humidity 26    
Precipitation  
Precipitation 0.00 in - - ()
Sea Level Pressure  
Sea Level Pressure 29.92 in    
Wind  
Wind Speed 7 mph (SE)    
Max Wind Speed 13 mph    
Max Gust Speed 24 mph    
Visibility 10 miles    
Events      
Averages and records for this station are not official NWS values.
T = Trace of Precipitation, MM = Missing Value Source: NWS Daily Summary

Daily Weather History Graph

Daily Weather History Graph

Search for Another Location

Airport or City:

Trip Planner

Search our weather history database for the weather conditions in past years. The results will help you decide how hot, cold, wet, or windy it might be!

Date:

Astronomy

Sep. 12, 2013 Rise Set
Actual Time 6:16 AM PDT 7:00 PM PDT
Civil Twilight 5:45 AM PDT 7:31 PM PDT
Nautical Twilight 5:08 AM PDT 8:08 PM PDT
Astronomical Twilight 4:29 AM PDT 8:46 PM PDT
Moon 2:15 PM PDT (9/12) 11:33 PM PDT (9/12)
Length of Visible Light 13h 45m
Length of Day
12h 43m
Waxing Crescent, 51% of the Moon is Illuminated
Sep 12
Waxing Crescent
Sep 19
Full
Sep 26
Last Quarter
Oct 4
New
Oct 11
First Quarter

Hourly Weather History & Observations

Time (PDT) Temp. Dew Point Humidity Pressure Visibility Wind Dir Wind Speed Gust Speed Precip Events Conditions
12:53 AM 62.1 °F 39.0 °F 43% 29.99 in 10.0 mi ESE 8.1 mph - N/A   Clear
1:53 AM 62.1 °F 39.0 °F 43% 29.98 in 10.0 mi ESE 9.2 mph 21.9 mph N/A   Clear
2:53 AM 61.0 °F 39.0 °F 44% 29.97 in 10.0 mi SE 9.2 mph 19.6 mph N/A   Clear
3:53 AM 60.1 °F 39.9 °F 47% 29.97 in 10.0 mi SE 9.2 mph 20.7 mph N/A   Clear
4:53 AM 59.0 °F 39.9 °F 49% 29.97 in 10.0 mi SE 9.2 mph 20.7 mph N/A   Clear
5:53 AM 57.9 °F 39.9 °F 51% 29.98 in 10.0 mi ESE 10.4 mph - N/A   Clear
6:53 AM 57.9 °F 41.0 °F 53% 29.99 in 10.0 mi ESE 9.2 mph 20.7 mph N/A   Clear
7:53 AM 59.0 °F 42.1 °F 53% 29.99 in 10.0 mi ESE 11.5 mph 18.4 mph N/A   Clear
8:53 AM 60.1 °F 42.1 °F 51% 29.99 in 10.0 mi ESE 12.7 mph 24.2 mph N/A   Clear
9:53 AM 64.9 °F 44.1 °F 47% 29.98 in 10.0 mi SE 11.5 mph 20.7 mph N/A   Clear
10:53 AM 66.9 °F 45.0 °F 45% 29.96 in 10.0 mi Variable 6.9 mph 16.1 mph N/A   Clear
11:53 AM 70.0 °F 44.1 °F 39% 29.94 in 10.0 mi Variable 5.8 mph - N/A   Clear
12:53 PM 72.0 °F 43.0 °F 35% 29.93 in 10.0 mi Variable 3.5 mph - N/A   Clear
1:53 PM 75.0 °F 41.0 °F 29% 29.90 in 10.0 mi Calm Calm - N/A   Clear
2:53 PM 75.0 °F 42.1 °F 31% 29.89 in 10.0 mi Variable 3.5 mph - N/A   Clear
3:53 PM 75.9 °F 39.0 °F 26% 29.87 in 10.0 mi Variable 3.5 mph - N/A   Clear
4:53 PM 75.9 °F 39.9 °F 27% 29.86 in 10.0 mi Calm Calm - N/A   Clear
5:53 PM 72.0 °F 41.0 °F 33% 29.87 in 10.0 mi Variable 4.6 mph - N/A   Clear
6:53 PM 70.0 °F 41.0 °F 35% 29.86 in 10.0 mi ESE 3.5 mph - N/A   Clear
7:53 PM 68.0 °F 39.9 °F 36% 29.86 in 10.0 mi Calm Calm - N/A   Clear
8:53 PM 66.9 °F 39.0 °F 36% 29.86 in 10.0 mi SSE 3.5 mph - N/A   Clear
9:53 PM 68.0 °F 37.9 °F 33% 29.83 in 10.0 mi Calm Calm - N/A   Clear
10:53 PM 68.0 °F 37.0 °F 32% 29.82 in 10.0 mi Calm Calm - N/A   Clear
11:53 PM 66.9 °F 37.0 °F 33% 29.81 in 10.0 mi Calm Calm - N/A   Clear